Volver al catálogo

STARLINK-6035

ActivoComunicacionesSSO
NORAD 56323·PAYLOAD·🇺🇸 United States

Lanzado Apr 27, 2023 desde Vandenberg Space Force Base

Loading…

Próximos Pases (próximas 24 horas)

TLE

ActualizadoSource: CelesTrak SupGP

Época: Sep 15, 2026, 01:50 UTC

1 56323C 23058G   26258.07687500  .00587150  00000+0  34860-1 0  2588
2 56323  97.2854 252.2274 0001536  87.1675 322.8594 15.11112654    10

Sigue STARLINK-6035 en tiempo real con AllMySat

Download on the App Store